Weather History for Phoenix Deer Valley, AZ

Change the Weather History Date:

Wednesday, February 20, 2013

  Actual Average Record
Temperature  
Mean Temperature 46 °F -  
Max Temperature 54 °F 65 °F 80 °F (2000)
Min Temperature 37 °F 46 °F 37 °F (2013)
Degree Days  
Heating Degree Days 20    
Moisture  
Dew Point 38 °F    
Average Humidity 79    
Maximum Humidity 89    
Minimum Humidity 47    
Precipitation  
Precipitation 0.24 in - - ()
Sea Level Pressure  
Sea Level Pressure 29.72 in    
Wind  
Wind Speed 9 mph (South)    
Max Wind Speed 16 mph    
Max Gust Speed -    
Visibility 9 miles    
Events Rain    
Averages and records for this station are not official NWS values.
T = Trace of Precipitation, MM = Missing Value Source: NWS Daily Summary

Daily Weather History Graph

Daily Weather History Graph

Search for Another Location

Airport:

Trip Planner

Search our weather history database for the weather conditions in past years. The results will help you decide how hot, cold, wet, or windy it might be!

Date:

Astronomy

Feb. 20, 2013 Rise Set
Actual Time 7:06 AM MST 6:17 PM MST
Civil Twilight 6:41 AM MST 6:42 PM MST
Nautical Twilight 6:12 AM MST 7:11 PM MST
Astronomical Twilight 5:43 AM MST 7:40 PM MST
Moon 1:50 PM MST (2/20) 3:21 AM MST (2/20)
Length of Visible Light 12h 01m
Length of Day
11h 10m
Waxing Gibbous, 76% of the Moon is Illuminated
Feb 20
Waxing Gibbous
Feb 25
Full
Mar 4
Last Quarter
Mar 11
New
Mar 19
First Quarter

Hourly Weather History & Observations

Time (MST) Temp. Windchill Dew Point Humidity Pressure Visibility Wind Dir Wind Speed Gust Speed Precip Events Conditions
12:53 AM 54.0 °F - 34.0 °F 47% 29.64 in 10.0 mi SW 8.1 mph - N/A   Scattered Clouds
1:53 AM 53.1 °F - 35.1 °F 50% 29.65 in 10.0 mi SSW 12.7 mph - N/A   Overcast
2:53 AM 51.1 °F - 41.0 °F 68% 29.62 in 10.0 mi SSW 6.9 mph - 0.03 in   Overcast
3:53 AM 46.9 °F - 42.1 °F 83% 29.62 in 10.0 mi SSE 8.1 mph - 0.03 in   Mostly Cloudy
4:53 AM 46.9 °F - 42.1 °F 83% 29.61 in 10.0 mi SSE 6.9 mph - N/A   Overcast
5:53 AM 48.0 °F - 42.1 °F 80% 29.61 in 10.0 mi SE 6.9 mph - N/A   Mostly Cloudy
6:53 AM 48.0 °F - 42.1 °F 80% 29.62 in 10.0 mi South 4.6 mph - N/A   Overcast
7:53 AM 46.9 °F - 39.0 °F 74% 29.64 in 9.0 mi SSW 13.8 mph - 0.01 in Rain Light Rain
8:35 AM 44.6 °F 38.8 °F 39.2 °F 81% 29.68 in 6.0 mi SW 11.5 mph - 0.05 in Rain Light Rain
8:53 AM 44.1 °F 37.1 °F 39.9 °F 85% 29.67 in 7.0 mi SW 15.0 mph - 0.07 in Rain Light Rain
9:08 AM 42.8 °F 35.1 °F 39.2 °F 87% 29.70 in 7.0 mi WSW 16.1 mph - 0.01 in Rain Light Rain
9:53 AM 42.1 °F 35.7 °F 39.0 °F 89% 29.69 in 6.0 mi SW 11.5 mph - 0.05 in Rain Light Rain
10:09 AM 42.8 °F 36.2 °F 39.2 °F 87% 29.71 in 7.0 mi West 12.7 mph - 0.01 in Rain Light Rain
10:18 AM 42.8 °F 38.0 °F 39.2 °F 87% 29.71 in 10.0 mi SW 8.1 mph - 0.02 in Rain Light Rain
10:40 AM 42.8 °F 38.0 °F 39.2 °F 87% 29.72 in 10.0 mi SSW 8.1 mph - 0.02 in Rain Light Rain
10:53 AM 42.1 °F 39.2 °F 39.0 °F 89% 29.70 in 10.0 mi South 4.6 mph - 0.02 in Rain Light Rain
12:03 PM 44.6 °F 40.2 °F 37.4 °F 76% 29.72 in 10.0 mi WSW 8.1 mph - N/A   Overcast
12:53 PM 45.0 °F 42.6 °F 39.0 °F 80% 29.69 in 10.0 mi SW 4.6 mph - N/A   Overcast
1:53 PM 46.9 °F - 36.0 °F 66% 29.68 in 10.0 mi SSE 6.9 mph - N/A   Mostly Cloudy
2:00 PM 46.4 °F - 35.6 °F 66% 29.70 in 10.0 mi Calm Calm - N/A   Mostly Cloudy
3:53 PM 44.1 °F - 36.0 °F 73% 29.73 in 10.0 mi Calm Calm - 0.02 in   Mostly Cloudy
4:25 PM 42.8 °F 35.8 °F 37.4 °F 81% 29.76 in 10.0 mi NNE 13.8 mph - N/A   Mostly Cloudy
4:35 PM 41.0 °F 33.9 °F 37.4 °F 87% 29.77 in 10.0 mi NNE 12.7 mph - N/A   Overcast
4:53 PM 41.0 °F 35.2 °F 36.0 °F 82% 29.77 in 10.0 mi NNE 9.2 mph - 0.00 in   Overcast
5:53 PM 41.0 °F 35.8 °F 35.1 °F 79% 29.78 in 10.0 mi North 8.1 mph - 0.01 in   Scattered Clouds
6:53 PM 41.0 °F 39.0 °F 35.1 °F 79% 29.79 in 10.0 mi SSE 3.5 mph - N/A   Clear
7:53 PM 39.0 °F 33.4 °F 35.1 °F 86% 29.84 in 10.0 mi East 8.1 mph - N/A   Clear
8:53 PM 37.9 °F 35.5 °F 35.1 °F 89% 29.88 in 10.0 mi ESE 3.5 mph - N/A   Scattered Clouds
9:53 PM 39.0 °F 32.8 °F 35.1 °F 86% 29.90 in 10.0 mi SE 9.2 mph - N/A   Mostly Cloudy
10:53 PM 37.9 °F 33.5 °F 35.1 °F 89% 29.92 in 10.0 mi East 5.8 mph - N/A   Clear